x

Silver Bay, Mn (slvm5) Weather Station

6:40am - Sat 4th Jul 2015 All times are CDT. -5 hours from GMT.

  • Wind
  • Air Temp 64°f
  • Sea Pressure 1014.6mb
  • Silver Bay, Mn
  • Silver Bay, Mn

More Historic Weather Station data

Upgrade to MSW Pro to gain access to the past 30 days of data for over 8000 Wavebouys and Weather Stations around the globe.

Join Pro

Comparision Forecast

View Surf forecast
   
Sat 07/04 6:40am  -  5 mph 1014.6mb 64f
6:30am 2 6 mph 1014.6mb 64f
6:20am  -  5 mph 1014.6mb 63f
6:10am  -  5 mph 1014.6mb 62f
6:00am  -  6 mph 1014.6mb 61f
5:40am  -  mph 1014.2mb 57f
5:30am  -  mph 1014.2mb 54f
5:20am  -  mph 1014.2mb 55f
5:10am  -  mph 1014.2mb 54f
5:00am  -  5 mph 1014.2mb 55f
4:40am  -  mph 1013.9mb 57f
4:30am  -  mph 1013.9mb 56f
4:20am  -  3 mph 1013.9mb 55f
4:10am  -  mph 1013.9mb 55f
4:00am  -  mph 1013.9mb 55f
3:40am 2 3 mph 1013.9mb 52f
3:30am  -  2 mph 1013.9mb 57f
3:20am  -  5 mph 1013.9mb 62f
3:10am 2 5 mph 1013.5mb 62f
3:00am  -  6 mph 1013.5mb 62f
2:40am 5 7 mph 1013.5mb 62f
2:30am 3 7 mph 1013.2mb 62f
2:20am 5 11 mph 1013.2mb 63f
2:10am 5 10 mph 1013.2mb 63f
2:00am 5 20 mph 1013.2mb 62f
1:40am 13 20 mph 1013.2mb -
1:30am 6 9 mph 1012.9mb 67f
1:20am 6 10 mph 1012.9mb 67f
1:10am 5 8 mph 1012.9mb 67f
1:00am 5 10 mph 1012.9mb 67f
12:40am 8 10 mph 1012.5mb 68f
12:30am 8 13 mph 1012.5mb 68f
12:20am 7 11 mph 1012.5mb 68f
12:10am 7 13 mph 1012.5mb 68f
12:00am 9 14 mph 1012.5mb 68f
Fri 07/03 11:40pm 10 16 mph 1012.2mb 70f
11:30pm 13 16 mph 1012.2mb 70f
11:20pm 13 17 mph 1012.2mb 71f
11:10pm 13 18 mph 1012.2mb 71f
11:00pm 11 15 mph 1011.9mb 71f
10:40pm 5 10 mph 1011.9mb 63f
10:30pm  -  2 mph 1011.9mb 64f
10:20pm  -  1 mph 1011.5mb 63f
10:10pm  -  mph 1011.5mb 61f
10:00pm  -  mph 1011.5mb 60f
9:40pm  -  mph 1011.2mb 62f
9:30pm  -  mph 1011.2mb 61f
9:20pm  -  mph 1011.2mb 61f
9:10pm  -  mph 1010.8mb 61f
9:00pm  -  1 mph 1010.8mb 68f
8:40pm  -  mph 1010.5mb 67f
8:30pm  -  14 mph 1010.5mb 67f
8:20pm 5 9 mph 1010.5mb 66f
8:10pm 6 9 mph 1010.5mb 73f
8:00pm 3 7 mph 1010.5mb 74f
7:40pm 5 9 mph 1010.2mb 77f
7:30pm 3 10 mph 1010.2mb 77f
7:20pm 8 14 mph 1010.2mb 78f
7:10pm 5 13 mph 1010.2mb 78f
7:00pm 2 7 mph 1010.2mb 75f
6:40pm 2 11 mph 1010.2mb -
6:30pm 5 9 mph 1010.2mb 73f
6:20pm  -  8 mph 1010.2mb 66f
6:10pm  -  6 mph 1010.2mb 72f
6:00pm  -  2 mph 1010.2mb 66f
5:40pm  -  2 mph 1009.8mb 60f
5:30pm  -  3 mph 1009.8mb 61f
5:20pm  -  3 mph 1009.8mb 59f
5:10pm  -  mph 1009.8mb 56f
5:00pm  -  5 mph 1009.8mb 56f
4:40pm 3 11 mph 1009.8mb 59f
4:30pm 11 13 mph 1009.8mb 57f
4:20pm 8 11 mph 1009.8mb 58f
4:10pm 3 8 mph 1009.8mb 59f
4:00pm 1 9 mph 1009.8mb 61f
3:40pm 8 9 mph 1009.8mb 57f
3:30pm 6 11 mph 1009.8mb 56f
3:20pm 9 14 mph 1009.8mb 58f
3:10pm 11 13 mph 1009.8mb 58f
3:00pm 9 11 mph 1009.8mb 59f
2:40pm 13 17 mph 1009.8mb 58f
2:30pm 15 20 mph 1009.8mb 60f
2:20pm 17 21 mph 1009.8mb 59f
2:10pm 14 20 mph 1009.8mb 61f
2:00pm 16 18 mph 1009.8mb 59f
1:40pm 13 17 mph 1010.2mb 58f
1:30pm 17 20 mph 1010.2mb 57f
1:20pm 16 21 mph 1010.2mb 58f
1:10pm 13 18 mph 1010.2mb 56f
1:00pm 17 21 mph 1010.2mb 57f
12:40pm 16 20 mph 1010.2mb 56f
12:30pm 18 20 mph 1010.2mb 56f
12:20pm 18 21 mph 1010.2mb 57f
12:10pm 16 17 mph 1010.2mb 54f
12:00pm 15 16 mph 1010.2mb 54f
11:40am 15 17 mph 1010.2mb 57f
11:30am 14 16 mph 1010.5mb 57f
11:20am 14 15 mph 1010.2mb 57f
11:10am 11 15 mph 1010.5mb 58f
11:00am 9 11 mph 1010.5mb 57f
10:40am 2 9 mph 1010.5mb 59f
10:30am  -  6 mph 1010.5mb 60f
10:20am 1 15 mph 1010.5mb 65f
10:10am 6 11 mph 1010.5mb 65f
10:00am 6 13 mph 1010.5mb 62f
9:40am 10 14 mph 1010.8mb 58f
9:30am 11 15 mph 1010.8mb 57f
9:20am 13 15 mph 1010.8mb 57f
9:10am 11 14 mph 1010.8mb 58f
9:00am 10 13 mph 1011.2mb 58f
8:40am 9 15 mph 1011.2mb 55f
8:30am 13 15 mph 1011.5mb 53f
8:20am 10 14 mph 1011.5mb 53f
8:10am 7 14 mph 1011.5mb 53f
8:00am 10 13 mph 1011.2mb 53f
7:40am 9 15 mph 1011.2mb 53f
7:30am 14 16 mph 1011.2mb 53f
7:20am 13 14 mph 1011.2mb 52f
7:10am 11 14 mph 1011.2mb 52f
7:00am 11 14 mph 1011.2mb 52f
6:50am 14 15 mph 1011.2mb 50f
6:40am 14 16 mph 1011.2mb 51f
6:30am 14 17 mph 1011.2mb 52f
6:20am 13 17 mph 1011.5mb 52f
6:10am 15 17 mph 1011.5mb 51f
6:00am 13 14 mph 1011.5mb 51f
5:50am 11 14 mph 1011.2mb 52f
5:40am 13 15 mph 1011.2mb 51f
5:30am 11 14 mph 1011.2mb 51f
5:20am 10 15 mph 1011.5mb 52f
5:10am 15 17 mph 1011.2mb 53f
5:00am 15 17 mph 1011.5mb 53f
4:50am 11 13 mph 1011.2mb 53f
4:40am 11 13 mph 1011.2mb 55f
4:30am 11 14 mph 1011.2mb 54f
4:20am 14 16 mph 1011.2mb 53f
4:10am 15 16 mph 1011.2mb 53f
4:00am 13 14 mph 1011.5mb 52f
3:50am 11 13 mph 1011.2mb 53f
3:40am 11 13 mph 1011.2mb 53f
3:30am 11 14 mph 1011.2mb 53f
3:20am 11 14 mph 1011.2mb 55f
3:10am 9 13 mph 1011.5mb 55f
3:00am 10 13 mph 1011.5mb 55f
2:50am 9 11 mph 1011.2mb 57f
2:40am 9 13 mph 1011.5mb 56f
2:30am 9 11 mph 1011.5mb 55f
2:20am 9 10 mph 1011.5mb 55f
2:10am 9 11 mph 1011.5mb 56f
2:00am 9 13 mph 1011.9mb 56f
1:50am 10 11 mph 1012.2mb 55f
1:40am 7 10 mph 1011.9mb 55f
1:30am 9 13 mph 1012.2mb 55f
1:20am 13 14 mph 1012.2mb 55f
1:10am 8 9 mph 1012.2mb 57f
1:00am 7 11 mph 1012.2mb 63f
12:50am 8 10 mph 1012.2mb 56f
12:40am 7 8 mph 1012.2mb 56f
12:30am 7 9 mph 1012.2mb 57f
12:20am 8 10 mph 1012.2mb 58f
12:10am 9 11 mph 1012.2mb 58f
12:00am 9 11 mph 1012.2mb 59f
Thu 07/02 11:50pm 8 11 mph 1012.2mb 57f
11:40pm 8 11 mph 1012.2mb 56f
11:30pm 10 11 mph 1012.2mb 57f
11:20pm 8 10 mph 1012.2mb 58f
11:10pm 9 13 mph 1012.2mb 57f
11:00pm 10 11 mph 1012.2mb 56f
10:50pm 9 10 mph 1012.2mb 56f
10:40pm 6 8 mph 1012.5mb 58f
10:30pm 5 9 mph 1012.9mb 60f
10:20pm 5 7 mph 1012.9mb 59f
10:10pm 5 8 mph 1012.9mb 57f
10:00pm 5 8 mph 1012.9mb 56f
9:50pm 7 10 mph 1013.2mb 56f
9:40pm 8 10 mph 1012.9mb 57f
9:30pm 6 8 mph 1012.9mb 57f
9:20pm 8 11 mph 1012.9mb 58f
9:10pm 9 11 mph 1012.5mb 57f
9:00pm 10 13 mph 1012.5mb 57f
8:50pm 6 9 mph 1012.5mb 58f
8:40pm 8 10 mph 1012.5mb 59f
8:30pm 8 9 mph 1012.5mb 61f
8:20pm 8 11 mph 1012.5mb 60f
8:10pm 9 11 mph 1012.5mb 60f
8:00pm 10 11 mph 1012.5mb 60f
7:50pm 9 11 mph 1012.5mb 61f
7:40pm 10 13 mph 1012.5mb 60f
7:30pm 9 14 mph 1012.5mb 61f
7:20pm 13 14 mph 1012.5mb 60f
7:10pm 11 14 mph 1012.9mb 61f
7:00pm 13 15 mph 1012.9mb 60f
6:50pm 15 17 mph 1012.9mb 60f
6:40pm 15 16 mph 1012.9mb 60f
6:30pm 15 17 mph 1012.9mb 62f
6:20pm 16 18 mph 1012.9mb 61f
6:10pm 16 17 mph 1012.9mb 61f
6:00pm 15 16 mph 1012.9mb 60f
5:50pm 16 17 mph 1013.2mb 60f
5:40pm 15 16 mph 1013.2mb 61f
5:30pm 16 17 mph 1013.2mb 61f
5:20pm 16 18 mph 1013.2mb 61f
5:10pm 17 18 mph 1013.2mb 62f
5:00pm 16 20 mph 1013.2mb 63f
4:50pm 18 21 mph 1013.2mb 63f
4:40pm 18 21 mph 1013.5mb 61f
4:30pm 18
mph
1013.5mb 60f
4:20pm 18 20 mph 1013.5mb 61f
4:10pm 18 20 mph 1013.5mb 61f
4:00pm 18 20 mph 1013.5mb 61f
3:50pm 16 18 mph 1013.5mb 62f
3:40pm 17 21 mph 1013.9mb 63f
3:30pm 20 21 mph 1013.9mb 61f
3:20pm 17 21 mph 1013.9mb 62f
3:10pm 18 21 mph 1014.2mb 62f
3:00pm 18 22 mph 1014.2mb 63f
2:50pm 18 22 mph 1014.6mb 63f
2:40pm 17 18 mph 1014.6mb 64f
2:30pm 16 18 mph 1014.6mb 61f
2:20pm 17 20 mph 1014.6mb 60f
2:10pm 16 18 mph 1014.6mb 61f
2:00pm 16 20 mph 1014.6mb 60f
1:50pm 15 17 mph 1014.6mb 59f
1:40pm 14 16 mph 1014.9mb 57f
1:30pm 16 17 mph 1014.9mb 58f
1:20pm 15 17 mph 1014.9mb 59f
1:10pm 14 17 mph 1014.9mb 57f
1:00pm 13 16 mph 1014.9mb 57f
12:50pm 14 16 mph 1014.9mb 57f
12:40pm 13 17 mph 1015.2mb 58f
12:30pm 15 17 mph 1015.2mb 58f
12:20pm 15 17 mph 1015.2mb 57f
12:10pm 13 16 mph 1015.2mb 57f
12:00pm 14 17 mph 1015.2mb 58f
11:50am 16 17 mph 1015.2mb 59f
11:40am 15 16 mph 1015.2mb 58f
11:30am 14 15 mph 1015.2mb 59f
11:20am 13 15 mph 1015.6mb 59f
11:10am 13 15 mph 1015.6mb 57f
11:00am 14 15 mph 1015.6mb 57f
10:50am 13 14 mph 1015.6mb 57f
10:40am 11 15 mph 1015.6mb 58f
10:30am 13 15 mph 1015.9mb 58f
10:20am 13 15 mph 1015.9mb 58f
10:10am 14
mph
1015.6mb 58f
10:00am 11 13 mph 1015.6mb 56f
9:40am 10 14 mph 1015.9mb 57f
9:30am 9 11 mph 1015.9mb 57f
9:20am 10 13 mph 1015.9mb 57f
9:10am 11 14 mph 1015.9mb 56f
9:00am 11 13 mph 1016.3mb 57f
8:50am 10 11 mph 1016.3mb 57f
8:40am 10 11 mph 1016.3mb 57f
8:30am 8 9 mph 1016.3mb 56f
8:20am 8 9 mph 1016.3mb 56f
8:10am 8 9 mph 1016.6mb 56f
8:00am 6 7 mph 1016.3mb 56f
7:50am 5 6 mph 1016.6mb 56f
7:40am 5 6 mph 1016.6mb 56f
7:30am 3 6 mph 1016.6mb 57f
7:20am 3 6 mph 1016.6mb 58f
7:10am 5 7 mph 1016.6mb 59f
7:00am 6 7 mph 1016.6mb 57f
6:50am  -  2 mph 1016.6mb 57f
6:40am 3
mph
1016.6mb 56f
6:30am 2 5 mph 1016.6mb 55f
6:20am 2 5 mph 1016.6mb 55f
6:10am 3 5 mph 1016.6mb 54f
6:00am 3 5 mph 1016.3mb 52f
5:50am  -  3 mph 1016.3mb 51f
5:40am 3
mph
1015.9mb 51f
5:30am  -  2 mph 1015.9mb 51f
5:20am  -  2 mph 1015.9mb 51f
5:10am  -  mph 1015.9mb 51f
5:00am  -  mph 1015.9mb 51f
4:50am  -  mph 1015.9mb 51f
4:40am  -  mph 1015.9mb 51f
4:30am  -  mph 1015.9mb 50f
4:20am  -  mph 1015.9mb 51f
4:10am  -  mph 1015.9mb 52f
4:00am  -  mph 1015.9mb 51f
3:40am  -  mph 1015.9mb 52f
3:30am  -  mph 1015.9mb 52f
3:20am  -  mph 1015.9mb 52f
3:10am  -  mph 1015.9mb 51f
3:00am  -  mph 1015.9mb 51f
2:50am  -  mph 1015.9mb 52f
2:40am  -  mph 1015.9mb 52f
2:30am  -  mph 1015.6mb 52f
2:20am  -  mph 1015.6mb 52f
2:10am  -  mph 1015.6mb 52f
2:00am  -  mph 1015.9mb 52f
1:50am  -  mph 1015.9mb 52f
1:40am  -  mph 1015.9mb 52f
1:30am  -  mph 1015.9mb 52f
1:20am  -  mph 1015.9mb 53f
1:10am  -  mph 1015.9mb 53f
1:00am  -  mph 1016.3mb 53f
12:50am  -  mph 1015.9mb 52f
12:40am  -  mph 1015.9mb 52f
12:30am  -  mph 1016.3mb 52f
12:20am  -  mph 1016.3mb 53f
12:10am  -  mph 1016.3mb 53f
12:00am  -  mph 1016.3mb 53f
Wed 07/01 11:50pm  -  mph 1016.3mb 53f
11:40pm  -  mph 1016.3mb 53f
11:30pm  -  mph 1016.3mb 53f
11:20pm  -  mph 1016.3mb 53f
11:10pm  -  mph 1016.3mb 53f
11:00pm  -  mph 1016.3mb 53f
10:50pm  -  mph 1016.3mb 54f
10:40pm  -  mph 1016.3mb 54f
10:30pm  -  mph 1016.3mb 54f
10:20pm  -  6 mph 1016.3mb 53f
10:10pm 6 8 mph 1016.3mb 54f
10:00pm  -  8 mph 1016.3mb 53f
9:50pm 5 8 mph 1016.3mb 53f
9:40pm  -  5 mph 1016.3mb 53f
9:30pm 2 6 mph 1015.9mb 54f
9:20pm 3 7 mph 1015.9mb 54f
9:10pm  -  6 mph 1015.9mb 54f
9:00pm  -  5 mph 1016.3mb 54f
8:50pm 3 8 mph 1016.3mb 55f
8:40pm 5 8 mph 1016.3mb 55f
8:30pm 5 8 mph 1016.3mb 55f
8:20pm 5 13 mph 1016.3mb 55f
8:10pm 7 14 mph 1016.3mb 55f
8:00pm 8 13 mph 1015.9mb 56f
7:50pm 5 9 mph 1015.9mb 56f
7:40pm 5 9 mph 1015.9mb 58f
7:30pm 2 7 mph 1015.9mb 57f
7:20pm 3 8 mph 1015.9mb 57f
7:10pm 5 8 mph 1015.9mb 58f
7:00pm 6 11 mph 1015.9mb 57f
6:50pm 5 10 mph 1015.9mb 58f
6:40pm 3 10 mph 1015.9mb 58f
6:30pm 7 10 mph 1015.9mb 59f
6:20pm 3 7 mph 1015.9mb 60f
6:10pm 3 9 mph 1015.9mb 59f
6:00pm 7 9 mph 1015.9mb 60f
5:50pm 3 9 mph 1015.9mb 60f
5:40pm 7 8 mph 1015.9mb 60f
5:30pm 5 9 mph 1015.9mb 60f
5:20pm 8 9 mph 1015.9mb 60f
5:10pm 6 9 mph 1015.9mb 60f
5:00pm 7 9 mph 1015.9mb 60f
4:50pm 8
mph
1015.9mb 59f
4:40pm 7 8 mph 1016.3mb 59f
4:30pm 6 8 mph 1016.3mb 59f
4:20pm 2 8 mph 1016.3mb 62f
4:10pm  -  mph 1015.9mb 61f
4:00pm  -  mph 1016.3mb 59f
3:50pm  -  mph 1016.3mb 58f
3:40pm  -  mph 1016.3mb 58f
3:30pm  -  mph 1016.3mb 58f
3:20pm  -  mph 1016.3mb 58f
3:10pm  -  mph 1016.3mb 58f
3:00pm  -  mph 1016.3mb 58f
2:50pm  -  3 mph 1016.3mb 58f
2:40pm 3 5 mph 1016.3mb 58f
2:30pm  -  3 mph 1016.6mb 57f
2:20pm  -  mph 1016.3mb 59f
2:10pm  -  mph 1016.3mb 60f
2:00pm  -  mph 1016.6mb 60f
1:50pm  -  mph 1016.6mb 59f
1:40pm  -  mph 1016.6mb 62f
1:30pm  -  mph 1016.6mb 61f
1:20pm  -  mph 1016.6mb 60f
1:10pm  -  mph 1016.6mb 60f
1:00pm  -  mph 1016.6mb 58f
12:50pm  -  mph 1016.6mb 57f
12:40pm  -  mph 1016.6mb 57f
12:30pm  -  mph 1016.6mb 59f
12:20pm  -  mph 1016.6mb 57f
12:10pm  -  mph 1016.6mb 57f
12:00pm  -  mph 1016.9mb 59f
11:50am  -  mph 1016.9mb 59f
11:40am  -  mph 1016.6mb 58f
11:30am  -  mph 1016.9mb 58f
11:20am  -  mph 1016.9mb 58f
11:10am  -  mph 1016.9mb 58f
11:00am  -  mph 1016.6mb 58f
10:50am  -  mph 1016.9mb 57f
10:40am  -  mph 1016.9mb 58f
10:30am  -  mph 1016.6mb 58f
10:20am  -  mph 1016.6mb 56f
8:40am  -  mph 1016.9mb 54f
8:30am  -  mph 1016.9mb 55f
8:20am  -  mph 1016.9mb 54f
8:10am  -  mph 1016.9mb 54f
8:00am  -  mph 1016.9mb 53f
7:40am  -  mph 1016.9mb 53f
7:30am  -  mph 1016.9mb 53f
7:20am  -  mph 1016.9mb 53f
7:10am  -  mph 1016.9mb 53f
7:00am  -  mph 1016.6mb 52f
6:50am  -  mph 1016.6mb 53f
6:40am  -  mph 1016.6mb 52f
6:30am  -  mph 1016.6mb 51f
6:20am  -  mph 1016.3mb 51f
6:10am  -  mph 1016.3mb 49f
6:00am  -  mph 1016.3mb 48f
5:50am  -  mph 1016.3mb 48f
5:40am  -  mph 1016.3mb 47f
5:30am  -  mph 1016.3mb 47f
5:20am  -  mph 1015.9mb 47f
5:10am  -  mph 1015.9mb 47f
5:00am  -  mph 1015.9mb 49f
4:50am  -  mph 1015.6mb 48f
4:40am  -  mph 1015.9mb 47f
4:30am  -  mph 1015.9mb 47f
4:20am  -  mph 1015.6mb 47f
4:10am  -  mph 1015.6mb 47f
4:00am  -  mph 1015.6mb 47f
3:50am  -  mph 1015.6mb 49f
3:40am  -  mph 1015.6mb 49f
3:30am  -  mph 1015.6mb 49f
3:20am  -  mph 1015.6mb 49f
3:10am  -  mph 1015.6mb 49f
3:00am  -  mph 1015.6mb 49f
2:50am  -  mph 1015.6mb 49f
2:40am  -  mph 1015.9mb 49f
2:30am  -  mph 1015.9mb 49f
2:20am  -  2 mph 1015.6mb 49f
2:10am  -  mph 1015.6mb 49f
2:00am  -  mph 1015.6mb 50f
1:50am  -  mph 1015.9mb 50f
1:40am  -  1 mph 1015.9mb 50f
1:30am  -  1 mph 1015.9mb 50f
1:20am  -  mph 1015.9mb 50f
1:10am  -  2 mph 1015.9mb 50f
1:00am  -  1 mph 1015.9mb 50f
12:50am  -  mph 1015.9mb 51f
12:40am  -  1 mph 1015.9mb 51f
12:30am  -  mph 1015.9mb 51f
12:20am  -  mph 1015.9mb 51f
12:10am  -  mph 1015.9mb 51f
12:00am  -  mph 1015.6mb 51f
Tue 06/30 11:50pm  -  mph 1015.6mb 51f
11:40pm  -  mph 1015.6mb 51f
11:30pm  -  mph 1015.6mb 51f
11:20pm  -  mph 1015.6mb 52f
11:10pm  -  mph 1015.9mb 52f
11:00pm  -  mph 1015.9mb 52f
10:50pm  -  mph 1016.3mb 52f
10:40pm  -  mph 1015.9mb 52f
10:30pm  -  mph 1015.9mb 53f
10:20pm  -  mph 1015.9mb 53f
10:10pm  -  mph 1015.9mb 53f
10:00pm  -  mph 1015.6mb 53f
9:50pm  -  mph 1015.6mb 53f
9:40pm  -  mph 1015.9mb 53f
9:30pm  -  mph 1015.6mb 53f
9:20pm  -  mph 1015.6mb 53f
9:10pm  -  mph 1015.6mb 53f
9:00pm  -  mph 1015.6mb 53f
8:50pm  -  mph 1015.2mb 53f
8:40pm  -  mph 1015.2mb 53f
8:30pm  -  mph 1015.6mb 53f
8:20pm  -  mph 1015.6mb 54f
8:10pm  -  mph 1015.2mb 53f
8:00pm  -  mph 1015.2mb 54f
7:50pm  -  mph 1015.2mb 54f
7:40pm  -  mph 1015.2mb 54f
7:30pm  -  mph 1015.2mb 54f
7:20pm  -  mph 1015.2mb 54f
7:10pm  -  mph 1015.2mb 54f
7:00pm  -  mph 1015.2mb 53f
6:50pm  -  mph 1014.9mb 53f
5:40pm 5 7 mph 1015.2mb 55f
5:30pm 2 7 mph 1015.2mb 55f
5:20pm 3 6 mph 1015.2mb 55f
5:10pm 3 7 mph 1015.2mb 55f
5:00pm 5 9 mph 1015.2mb 55f
4:50pm 7 9 mph 1015.2mb 55f
4:40pm 6 9 mph 1015.2mb 55f
4:30pm 7 9 mph 1015.6mb 55f
4:20pm 7 9 mph 1015.6mb 55f
4:10pm 7 9 mph 1015.6mb 56f
4:00pm 7 10 mph 1015.6mb 55f
3:50pm 8 9 mph 1015.6mb 56f
3:40pm 7 8 mph 1015.9mb 56f
3:30pm 7 8 mph 1015.9mb 56f
3:20pm 7 8 mph 1015.9mb 55f
3:10pm 7 8 mph 1015.9mb 56f
3:00pm 7 8 mph 1015.9mb 56f
2:50pm 5 7 mph 1015.9mb 56f
2:40pm 5 8 mph 1015.9mb 56f
2:30pm 6 8 mph 1015.9mb 56f
2:20pm 6 8 mph 1016.3mb 56f
2:10pm 6 9 mph 1016.3mb 56f
2:00pm 7 8 mph 1016.3mb 56f
1:50pm 7 8 mph 1016.3mb 56f
1:40pm 7 8 mph 1016.3mb 56f
1:30pm 3 5 mph 1015.9mb 55f
1:20pm 3 5 mph 1015.9mb 54f
1:10pm  -  1 mph 1015.9mb 55f
1:00pm  -  mph 1015.9mb 60f
12:50pm  -  mph 1016.3mb 57f
12:40pm  -  mph 1016.3mb 55f